Regional Weather Roundup
Issued by NWS

Home | Current Version | Previous Version | Text Only | Print | Product List | Glossary On
Versions: 1 2 3 4 5 6 7 8 9 10 11 12 13 14 15 16 17 18 19 20 21 22 23 24 25 26 27 28 29 30 31 32 33 34 35 36 37 38 39 40 41 42 43 44 45 46 47 48 49 50
000
ASUS45 KBOI 172210
RWRID
WEATHER ROUNDUP FOR IDAHO
NATIONAL WEATHER SERVICE BOISE ID
400 PM MDT WED SEP 17 2014

NOTE: "FAIR" INDICATES FEW OR NO CLOUDS BELOW 12000 FEET
WITH NO SIGNIFICANT WEATHER AND/OR OBSTRUCTIONS TO VISIBILITY

IDZ012-014-172300-
SOUTHWEST IDAHO


CITY           SKY/WX    TMP DP  RH WIND       PRES   REMARKS
BOISE          MOSUNNY   91  38  15 NW6       29.78F
CALDWELL       MOSUNNY   86  48  26 E3        29.79F
MOUNTAIN HOME  MOSUNNY   91  41  17 N6        29.78F
$$

IDZ016-017-172300-
SOUTHCENTRAL IDAHO


CITY           SKY/WX    TMP DP  RH WIND       PRES   REMARKS
BURLEY         PTSUNNY   91  46  21 N7        29.85F
JEROME         MOSUNNY   88  43  20 NW5       29.87F
TWIN FALLS     MOSUNNY   88  47  24 N3        29.87F
$$

IDZ019>023-172300-
SOUTHEAST IDAHO


CITY           SKY/WX    TMP DP  RH WIND       PRES   REMARKS
IDAHO FALLS    MOSUNNY   88  41  19 CALM      29.94F
POCATELLO      MOSUNNY   91  41  17 VRB5      29.91F
REXBURG        PTSUNNY   84  44  24 VRB6      29.96F
$$

IDZ006-010-011-018-031-032-172300-
CENTRAL IDAHO MOUNTAINS


CITY           SKY/WX    TMP DP  RH WIND       PRES   REMARKS
MCCALL         MOSUNNY   76  37  24 S9        29.93F
HAILEY         PTSUNNY   82  46  28 SE15      29.97
STANLEY          N/A     78  35  21 N6        30.04F
SALMON         CLOUDY    70  46  43 SE5       29.91F
CHALLIS        CLOUDY    76  45  33 N8        29.96F
$$

IDZ002-004-006-007-026-172300-
NORTHERN IDAHO


CITY           SKY/WX    TMP DP  RH WIND       PRES   REMARKS
LEWISTON       PTSUNNY   86  44  23 VRB3      29.68F HAZE
LOWELL           N/A     74  56  53 CALM      29.74F
COEUR D`ALENE  PTSUNNY   82  39  21 SE3       29.74F
MULLAN PASS    CLOUDY    73  41  31 VRB3      29.97F
$$


USA.gov is the U.S. government's official web portal to all federal, state and local government web resources and services.